Probability
0 0 0 0 0 0 0 0 0 0 0 0 1 2 3 3 2 2 1 1 0 0 1 2 2 1 1 3 5 7 8 8 5 4 3 3 3 3 3 3 2 1 0 0
0 0 0 0 0 0 0 0 0 0 0 0 0 1 2 3 2 1 1 1 0 0 0 2 3 2 1 3 6 8 9 9 7 5 3 3 3 3 4 3 3 1 0 0
0 0 0 0 0 0 0 0 0 0 0 0 0 0 1 2 2 2 1 1 0 0 1 2 4 4 3 4 7 10 9 8 6 5 4 3 3 4 4 4 3 2 1 0
0 0 0 0 0 0 0 0 0 0 0 0 0 0 0 1 1 1 1 0 0 0 1 2 4 5 6 5 7 9 8 5 4 4 3 3 3 3 4 4 4 3 1 0
0 0 0 0 0 0 0 0 0 0 0 0 0 0 0 0 0 0 0 0 0 0 0 1 2 4 6 6 6 7 5 4 4 3 3 3 3 3 3 4 4 3 1 1
0 0 0 0 0 0 0 0 0 0 0 0 0 0 0 0 0 0 0 0 0 0 0 1 2 4 6 6 6 6 5 4 5 4 3 3 3 3 3 4 4 4 3 2
0 0 0 0 0 0 0 0 0 0 0 0 0 0 0 0 0 0 0 0 0 0 1 2 3 4 6 7 6 5 5 6 6 5 4 4 3 3 3 4 5 6 4 2
0 0 0 0 0 0 0 0 0 0 0 0 0 0 0 0 0 0 0 0 0 0 1 2 3 4 6 8 7 5 4 5 6 6 6 5 4 3 3 4 6 7 4 2
0 0 0 0 0 0 0 0 0 0 0 0 0 0 0 0 0 0 0 0 0 0 1 2 3 4 6 7 7 5 4 4 5 6 6 5 4 4 4 5 7 7 5 2
0 0 0 0 0 0 0 0 0 0 0 0 0 0 0 0 0 0 0 0 0 1 1 3 3 3 4 5 6 6 5 4 5 6 6 6 6 6 6 6 7 7 5 4
0 0 0 0 0 0 0 0 0 0 0 0 0 0 0 0 0 0 0 0 0 1 2 3 3 3 2 3 4 4 4 5 5 7 7 7 7 7 7 6 7 7 6 4
0 0 0 0 0 0 0 0 0 0 0 0 0 0 0 0 0 0 0 0 0 1 2 2 2 2 1 2 2 2 3 5 6 7 8 7 7 7 7 6 6 6 6 4
0 0 0 0 0 0 0 0 0 0 0 0 0 0 0 0 0 0 0 0 0 0 0 1 2 1 1 1 2 2 4 5 6 7 7 6 7 7 7 6 6 7 6 5
0 0 0 0 0 0 0 0 0 0 0 0 0 0 0 0 0 0 0 0 0 0 0 1 2 1 1 1 1 2 3 5 6 6 6 6 6 6 6 7 7 8 8 7
0 0 0 0 0 0 0 0 0 0 0 0 0 0 0 0 0 0 0 0 0 0 0 1 2 1 0 0 0 1 1 3 5 6 6 6 7 7 7 7 9 10 10 10
0 0 0 0 0 0 0 0 0 0 0 0 0 0 0 0 0 0 0 0 0 0 0 1 1 0 0 0 0 0 0 1 4 5 6 7 8 8 8 10 12 12 12 11
0 0 0 0 0 0 0 0 0 0 0 0 0 0 0 0 0 0 0 0 0 0 0 0 0 0 0 0 0 0 0 1 3 5 6 8 10 11 12 13 15 15 13 11
0 0 0 0 0 0 0 0 0 0 0 0 0 0 0 0 0 0 0 0 0 0 1 1 0 0 0 0 0 0 0 2 5 5 6 7 9 11 13 14 15 15 14 11
0 0 0 0 0 0 0 0 0 0 0 0 0 0 0 0 0 0 0 0 0 1 2 1 0 0 0 0 0 1 1 2 5 5 5 6 7 8 10 11 12 13 12 11
0 0 0 0 0 0 0 0 0 0 0 0 0 0 0 0 0 0 0 0 0 1 2 1 0 0 0 0 1 2 2 3 4 4 4 4 4 5 7 8 9 9 10 10
0 0 0 0 0 0 0 0 0 0 0 0 0 0 0 0 0 0 0 0 0 1 1 0 0 0 0 1 2 3 3 3 3 3 3 3 3 4 5 6 6 6 7 8
0 0 0 0 0 0 0 0 0 0 0 0 0 0 0 0 0 0 0 0 0 0 0 0 0 0 1 2 4 4 4 3 3 3 3 3 3 3 3 4 5 5 5 5
0 0 0 0 0 0 0 0 0 0 0 0 0 0 0 0 0 0 0 0 0 0 0 0 0 1 1 3 4 4 3 3 3 2 2 2 2 1 2 3 4 5 4 4
0 0 0 0 0 0 0 0 0 0 0 0 0 0 0 0 0 0 0 0 0 0 0 0 0 1 2 2 3 3 2 2 1 1 1 1 1 0 1 3 5 6 5 5
0 0 0 0 0 0 0 0 0 0 0 0 0 0 0 0 0 0 0 0 0 0 0 0 0 1 1 1 1 1 1 1 0 0 0 0 0 0 0 2 4 5 5 5
0 0 0 0 0 0 0 0 0 0 0 0 0 0 0 0 0 0 0 0 0 0 0 0 0 0 0 0 0 0 0 0 0 0 0 0 0 0 0 1 2 3 4 4
Wind_Speed
7 5 5 5 5 4 4 4 4 3 3 4 5 5 6 7 5 5 5 5 6 6 7 7 6 5 4 4 4 5 5 4 4 2 2 2 1 1 2 2 2 2 2 3
5 5 4 4 3 3 4 5 5 4 2 3 5 7 5 7 7 5 5 5 6 7 7 7 6 5 4 4 4 4 4 4 4 3 2 2 2 1 2 1 2 1 2 2
4 3 3 4 5 5 6 6 5 5 4 7 7 7 5 6 6 5 5 5 5 6 7 8 7 6 4 3 3 3 4 5 5 4 2 2 2 1 2 1 1 1 1 2
5 4 4 5 6 6 5 4 6 7 6 5 5 4 4 5 6 7 6 6 5 5 6 7 7 7 6 4 3 3 4 4 4 4 3 3 2 1 2 1 1 1 1 2
4 3 5 6 6 5 4 5 7 9 7 7 8 6 3 5 6 6 6 6 5 5 6 7 7 7 6 5 4 3 4 4 4 4 4 3 2 2 1 2 2 1 1 1
7 4 4 5 3 3 5 7 9 9 7 8 8 6 2 3 4 5 5 6 6 6 6 6 7 6 6 5 4 4 4 4 4 4 4 4 3 2 2 2 2 1 1 1
7 7 5 4 4 5 6 5 4 5 6 5 4 4 2 3 3 3 4 4 6 7 7 7 7 7 6 6 5 4 4 4 4 4 4 4 3 3 2 2 2 2 1 1
6 5 6 5 5 5 6 6 4 4 3 3 3 3 2 5 4 3 3 3 4 5 5 7 7 7 7 7 6 5 5 4 4 4 4 3 4 2 2 3 2 3 2 2
5 2 3 3 4 6 6 5 6 6 8 6 4 3 3 5 4 3 3 3 3 4 5 5 7 7 6 7 6 6 5 4 4 4 3 3 3 2 2 2 2 2 2 2
6 6 3 3 5 7 8 6 4 4 4 5 4 3 2 4 2 2 3 3 2 2 4 5 5 6 6 6 5 6 5 5 4 3 3 2 2 2 2 2 2 2 3 3
7 7 5 5 6 6 6 7 6 4 5 4 3 1 3 4 2 2 1 1 2 2 3 4 4 4 4 4 5 5 5 4 3 3 3 3 2 2 2 2 2 2 2 2
5 6 7 7 6 7 7 7 6 4 5 5 4 2 2 3 2 2 1 1 2 3 2 2 4 4 4 4 4 4 3 4 3 3 3 2 2 2 2 2 2 2 2 2
4 5 6 4 5 6 6 6 6 6 5 5 6 3 2 3 2 1 1 1 2 3 2 2 2 3 4 3 3 3 3 3 3 2 2 2 2 2 2 2 1 1 2 1
4 7 8 8 6 4 6 8 8 7 6 7 8 7 3 2 1 1 1 1 2 2 2 2 2 3 3 3 3 3 2 2 2 2 2 2 2 2 2 2 2 2 1 2
5 8 10 11 10 10 9 10 10 10 10 10 9 8 5 4 3 2 0 1 2 2 2 2 1 2 3 3 3 3 2 2 2 2 2 2 2 2 1 1 1 1 1 2
6 8 10 12 12 11 12 11 10 11 11 11 10 8 5 4 3 4 3 3 2 2 1 0 1 2 2 3 3 3 3 2 2 2 2 2 1 1 1 1 2 2 1 1
7 9 10 10 10 11 11 9 9 8 8 8 6 4 4 4 4 4 4 3 2 2 1 1 2 1 2 3 4 4 3 3 3 3 2 2 2 1 2 1 1 2 2 1
9 9 7 8 9 11 5 3 3 4 3 3 4 5 6 5 4 2 3 3 3 3 3 3 2 1 1 2 3 3 3 3 3 3 3 2 2 2 2 2 2 2 1 1
9 7 6 6 8 9 5 3 3 4 3 4 4 5 6 7 4 2 5 5 4 4 3 3 3 2 2 2 3 3 3 3 3 3 2 2 2 2 2 2 2 2 2 1
7 7 6 6 7 7 3 4 5 4 1 5 6 6 6 6 4 3 6 7 6 4 3 3 3 2 2 1 2 3 3 3 3 2 2 2 2 2 2 3 2 2 2 2
6 7 8 8 8 5 3 4 5 3 2 5 6 7 7 5 4 5 5 5 5 3 3 3 3 2 2 1 0 2 2 2 2 2 1 2 2 2 2 2 2 2 2 2
5 4 6 6 7 4 4 3 3 3 4 5 6 7 7 6 5 5 5 4 4 4 3 3 3 2 2 1 0 0 1 1 2 1 1 1 1 2 1 1 2 2 2 2
4 3 3 3 2 2 4 4 3 4 4 4 4 5 6 5 5 5 4 4 4 4 3 3 3 3 2 1 1 0 0 1 1 1 1 1 1 1 1 2 2 1 1 2
5 5 5 5 3 2 2 3 3 4 4 5 5 5 5 5 4 4 4 4 4 3 3 2 2 2 3 2 2 1 1 0 1 2 2 1 1 1 1 1 1 2 2 2
7 6 7 7 5 3 3 3 4 4 4 5 6 6 5 5 4 4 4 4 3 3 2 2 2 2 2 2 1 1 1 1 1 1 1 1 1 1 0 0 0 1 2 2
7 7 6 6 5 4 4 3 4 4 4 5 6 6 5 5 5 5 4 3 3 2 2 2 2 2 2 2 2 1 1 1 1 1 1 1 1 1 1 1 0 1 1 2
Wind_Direction
205 217 231 240 249 265 274 274 266 258 216 246 253 248 211 185 202 207 201 189 185 182 161 152 147 145 145 136 139 139 137 134 119 106 103 103 93 85 84 87 86 61 60 73
219 229 249 271 271 256 264 271 266 265 260 259 267 259 226 187 196 202 208 201 193 174 160 147 150 147 149 142 149 144 137 132 123 123 123 124 128 116 101 85 82 70 67 69
230 248 238 251 258 246 248 257 265 269 268 254 263 264 240 187 185 189 210 212 203 178 170 160 157 148 151 149 150 143 140 134 131 129 117 100 89 75 82 87 93 78 78 80
242 231 244 252 259 263 269 281 283 275 268 266 251 271 235 187 182 187 197 205 200 180 169 158 153 157 158 155 145 147 141 139 135 134 130 136 141 167 166 153 152 175 133 104
244 232 245 258 271 281 289 289 275 272 269 269 257 258 240 179 189 188 187 188 186 173 164 162 158 156 153 150 149 152 146 139 138 142 150 171 166 180 157 141 136 134 130 132
251 245 254 272 283 281 288 277 267 254 259 255 248 245 252 196 192 185 180 177 175 170 159 158 155 147 148 147 149 154 152 145 151 163 170 184 173 169 147 141 144 163 164 170
241 220 221 238 252 235 250 266 271 236 226 244 243 239 224 155 151 154 163 180 175 170 165 158 151 152 153 153 156 157 148 150 160 175 180 176 171 170 169 172 167 168 178 184
250 230 201 212 242 261 250 257 272 293 288 300 273 243 123 111 107 111 132 169 170 162 162 160 153 156 159 158 161 161 166 169 173 186 179 176 170 173 187 194 180 178 189 194
295 266 167 204 243 261 261 252 268 281 285 278 235 181 153 126 133 139 146 152 155 157 150 151 154 158 159 162 164 165 168 168 179 188 179 180 173 182 196 201 196 184 191 198
294 291 250 209 225 237 256 277 273 261 281 276 269 260 177 136 107 127 154 155 134 142 148 149 156 160 162 164 167 168 174 175 176 177 176 178 181 191 197 205 206 198 198 195
287 277 252 225 233 246 237 248 256 261 263 277 287 329 70 111 105 109 100 122 138 123 147 150 153 156 156 157 160 168 173 173 173 180 186 185 184 196 204 207 215 212 212 204
280 280 264 240 234 244 256 258 264 267 273 281 283 282 108 119 94 62 59 79 114 115 118 141 153 156 156 161 163 169 177 179 177 184 189 182 193 193 202 225 225 210 216 224
316 276 272 245 219 219 240 252 267 273 271 269 269 253 122 98 72 38 7 23 106 116 124 127 145 152 153 159 160 166 170 170 169 174 192 194 200 196 201 214 232 235 224 220
281 267 268 273 289 274 258 264 264 263 260 264 267 276 285 304 272 251 222 119 102 118 129 133 156 162 162 166 163 165 162 162 164 170 191 208 213 200 213 213 212 226 226 219
264 270 278 281 285 287 277 267 266 264 266 271 282 288 294 294 302 311 115 106 112 119 121 141 185 188 179 167 166 170 175 181 179 177 202 220 222 197 195 199 206 223 229 237
257 270 280 280 278 274 273 263 258 260 265 267 271 281 309 333 350 358 22 35 53 71 76 116 232 217 190 179 179 176 186 194 186 189 210 218 222 188 189 211 201 207 221 235
259 267 277 277 283 281 266 261 255 254 265 276 280 301 339 347 354 358 5 8 7 3 329 264 247 231 221 199 186 183 190 196 192 196 207 204 211 195 196 224 216 212 203 209
265 267 269 273 272 258 271 316 309 296 307 344 335 353 358 349 336 336 11 357 355 354 336 325 301 264 251 225 185 177 183 195 195 196 203 202 200 201 201 205 209 222 228 201
251 258 262 266 270 268 272 311 321 295 306 360 354 359 354 340 331 11 18 0 344 341 336 339 328 304 266 227 186 179 187 192 190 194 200 200 200 200 203 206 212 225 225 215
241 241 249 258 263 268 308 358 333 302 275 26 5 351 339 338 327 336 356 354 346 350 355 347 327 313 302 273 184 183 186 185 185 190 198 201 203 207 210 208 212 222 211 212
230 238 243 254 258 268 3 351 329 292 4 11 359 349 345 342 334 331 344 342 346 1 358 351 341 331 317 329 132 189 186 189 180 181 197 197 201 211 215 212 208 208 210 206
273 258 255 259 257 260 26 4 2 2 4 358 358 349 345 346 349 356 355 350 352 357 358 358 352 340 341 348 328 223 208 168 137 149 178 198 212 221 219 199 217 214 208 202
271 281 291 281 277 342 353 4 359 353 350 353 353 345 341 341 341 344 348 346 346 346 350 359 355 343 339 353 355 309 313 106 129 140 181 206 213 210 194 191 195 205 213 212
289 306 285 277 274 292 297 317 338 341 349 348 344 343 343 335 337 338 335 330 333 341 348 350 350 351 342 351 357 344 354 350 166 162 178 190 204 214 190 183 189 195 218 220
296 298 286 280 283 304 315 327 338 343 341 337 335 336 338 335 331 331 325 326 324 329 333 336 336 333 329 332 333 326 346 322 268 190 177 188 194 188 141 115 217 212 219 214
275 278 277 286 310 300 299 317 331 329 332 332 331 334 338 335 325 324 323 320 319 324 325 333 338 329 326 337 336 326 316 284 266 213 180 167 160 163 154 155 39 11 196 170